QPF
0.00 0.00 0.00 0.00 0.00 0.00 0.00 0.00 0.00 0.00 0.00 0.00 0.00 0.00 0.00 0.00 0.00 0.00 0.00 0.00 0.00 0.00
0.00 0.00 0.00 0.00 0.00 0.00 0.00 0.00 0.00 0.00 0.00 0.00 0.00 0.00 0.00 0.00 0.00 0.00 0.00 0.00 0.00 0.00
0.00 0.00 0.00 0.00 0.00 0.00 0.00 0.00 0.00 0.00 0.00 0.00 0.00 0.00 0.00 0.00 0.00 0.00 0.00 0.00 0.00 0.00
0.00 0.00 0.00 0.00 0.00 0.00 0.00 0.00 0.00 0.00 0.00 0.00 0.00 0.01 0.00 0.00 0.00 0.00 0.00 0.00 0.00 0.00
0.00 0.00 0.00 0.00 0.00 0.00 0.00 0.00 0.00 0.00 0.00 0.00 0.00 0.00 0.00 0.00 0.00 0.00 0.00 0.00 0.00 0.00
0.00 0.01 0.06 0.02 0.02 0.00 0.00 0.02 0.03 0.02 0.00 0.00 0.00 0.00 0.00 0.00 0.00 0.00 0.00 0.00 0.00 0.00
0.03 0.06 0.10 0.31 0.60 0.70 0.31 0.23 0.21 0.09 0.08 0.03 0.01 0.00 0.00 0.00 0.00 0.00 0.00 0.00 0.00 0.00
0.01 0.08 0.22 0.35 0.46 0.77 0.49 0.61 0.43 0.38 0.30 0.17 0.10 0.05 0.08 0.06 0.01 0.00 0.00 0.00 0.00 0.00
0.06 0.05 0.01 0.08 0.14 0.25 0.33 0.44 0.72 0.41 0.25 0.21 0.13 0.05 0.05 0.09 0.07 0.02 0.00 0.00 0.00 0.00
0.02 0.03 0.03 0.03 0.01 0.02 0.03 0.05 0.13 0.13 0.04 0.05 0.04 0.00 0.00 0.03 0.08 0.07 0.02 0.01 0.01 0.00
0.06 0.05 0.04 0.03 0.01 0.02 0.02 0.03 0.03 0.02 0.01 0.00 0.00 0.00 0.01 0.10 0.11 0.06 0.05 0.02 0.06 0.09
0.02 0.01 0.00 0.00 0.00 0.00 0.00 0.01 0.00 0.00 0.00 0.00 0.00 0.00 0.00 0.06 0.12 0.06 0.01 0.01 0.05 0.10
0.00 0.00 0.00 0.00 0.00 0.00 0.00 0.00 0.00 0.00 0.00 0.00 0.00 0.00 0.01 0.01 0.04 0.01 0.02 0.02 0.00 0.07
0.00 0.00 0.00 0.00 0.00 0.00 0.00 0.00 0.00 0.00 0.00 0.00 0.00 0.00 0.00 0.00 0.00 0.00 0.01 0.00 0.00 0.01
MSLP
1014.36 1014.82 1015.08 1015.19 1015.55 1015.77 1015.78 1015.53 1015.48 1015.73 1015.76 1015.85 1015.99 1016.15 1016.33 1016.87 1017.02 1017.18 1017.42 1017.66 1017.86 1017.85
1013.85 1014.27 1014.57 1014.76 1014.88 1015.02 1015.11 1015.21 1015.33 1015.36 1015.47 1015.46 1015.50 1015.69 1016.13 1016.50 1016.73 1016.92 1017.12 1017.14 1017.16 1017.30
1013.19 1013.52 1013.90 1014.22 1014.41 1014.54 1014.62 1014.86 1014.94 1014.93 1015.00 1014.95 1015.07 1015.33 1015.66 1015.99 1016.21 1016.55 1016.75 1016.86 1016.92 1016.94
1012.71 1013.07 1013.47 1013.77 1013.92 1014.12 1014.24 1014.31 1014.51 1014.58 1014.62 1014.62 1014.75 1014.90 1015.25 1015.54 1015.71 1016.04 1016.21 1016.36 1016.50 1016.48
1012.22 1012.69 1013.10 1013.33 1013.58 1013.77 1014.00 1014.15 1014.24 1014.20 1014.29 1014.43 1014.43 1014.51 1014.80 1015.15 1015.31 1015.60 1015.80 1015.87 1016.02 1016.10
1011.79 1012.16 1012.57 1013.04 1013.08 1013.34 1013.74 1013.80 1013.95 1014.20 1014.26 1014.12 1014.10 1014.20 1014.22 1014.39 1014.69 1014.88 1014.98 1015.23 1015.49 1015.51
1011.39 1011.68 1012.07 1012.12 1012.31 1012.99 1013.51 1013.55 1013.53 1013.66 1013.58 1013.57 1013.58 1013.80 1013.76 1013.79 1014.04 1014.18 1014.19 1014.40 1014.65 1014.85
1010.75 1011.06 1011.52 1011.64 1011.63 1012.55 1013.11 1013.39 1013.24 1013.69 1013.27 1013.02 1012.88 1012.78 1012.98 1013.11 1013.22 1013.58 1013.76 1013.67 1013.72 1013.94
1010.75 1011.09 1011.49 1011.82 1012.13 1012.18 1012.36 1012.49 1012.69 1012.60 1013.01 1011.93 1012.11 1011.94 1011.94 1012.15 1012.39 1012.31 1012.49 1012.88 1013.11 1013.22
1011.20 1011.63 1012.09 1012.28 1012.29 1012.45 1012.52 1012.32 1012.57 1012.86 1012.49 1012.00 1011.47 1011.11 1011.09 1011.15 1011.56 1011.70 1011.73 1011.75 1011.99 1012.39
1012.00 1012.15 1012.49 1012.66 1012.64 1012.76 1012.96 1013.00 1012.81 1012.36 1011.92 1011.53 1011.04 1010.81 1010.77 1010.71 1011.02 1011.24 1011.17 1011.10 1011.09 1011.33
1012.66 1012.90 1013.16 1013.42 1013.53 1013.39 1013.16 1013.02 1012.91 1012.66 1012.32 1011.90 1011.12 1010.77 1010.49 1010.48 1010.57 1010.45 1010.23 1010.18 1010.30 1010.41
1012.99 1013.45 1013.97 1014.25 1014.24 1014.14 1013.95 1013.47 1012.94 1012.22 1011.87 1011.49 1011.03 1010.62 1010.32 1010.18 1010.00 1009.67 1009.43 1009.42 1009.34 1009.50
1013.92 1014.31 1014.60 1014.67 1014.61 1014.44 1014.04 1013.62 1013.19 1012.49 1011.66 1011.02 1010.50 1010.00 1009.85 1009.76 1009.54 1008.91 1008.49 1008.45 1008.53 1008.66
Thickness
5772 5769 5768 5769 5767 5767 5769 5773 5778 5777 5778 5780 5780 5781 5781 5780 5781 5781 5778 5775 5774 5774
5775 5772 5770 5771 5771 5770 5771 5772 5774 5776 5777 5780 5780 5781 5781 5779 5779 5779 5777 5777 5778 5776
5778 5777 5776 5773 5772 5773 5773 5772 5774 5775 5777 5781 5782 5781 5781 5780 5781 5778 5777 5776 5777 5776
5779 5778 5776 5775 5774 5773 5773 5774 5773 5774 5775 5777 5779 5780 5778 5778 5779 5776 5776 5776 5776 5776
5779 5777 5774 5773 5772 5772 5769 5768 5768 5771 5772 5773 5775 5777 5775 5774 5776 5774 5773 5773 5773 5772
5776 5775 5772 5767 5769 5769 5765 5767 5765 5762 5763 5767 5770 5771 5773 5773 5772 5774 5774 5772 5772 5772
5774 5774 5771 5772 5768 5760 5757 5761 5763 5762 5762 5765 5768 5768 5769 5770 5769 5770 5772 5771 5772 5771
5777 5776 5771 5768 5760 5750 5747 5745 5757 5748 5757 5761 5766 5770 5768 5769 5770 5767 5767 5770 5771 5771
5774 5770 5766 5762 5758 5756 5754 5750 5752 5752 5749 5753 5763 5769 5769 5768 5768 5770 5768 5767 5768 5769
5766 5760 5756 5755 5752 5748 5747 5748 5746 5745 5751 5756 5763 5766 5767 5768 5767 5767 5768 5768 5767 5767
5754 5752 5747 5744 5743 5741 5737 5735 5736 5741 5747 5752 5759 5760 5760 5761 5760 5760 5762 5766 5767 5766
5742 5739 5735 5730 5728 5729 5730 5730 5730 5731 5733 5737 5746 5750 5753 5752 5754 5755 5758 5761 5764 5766
5731 5725 5720 5716 5715 5715 5716 5719 5722 5728 5730 5733 5738 5740 5742 5742 5747 5751 5752 5754 5760 5762
5714 5710 5706 5705 5703 5703 5706 5708 5710 5716 5722 5728 5731 5734 5734 5734 5738 5747 5750 5752 5755 5758